Location: Holcomb Observatory
(44.4922°N, 73.1654°W)
Time: 10:33:48
(UTC-04:00)

Cosmos 2360 Rocket - Visible Passes

Search period start: 22 May 2015 00:00
Search period end: 01 June 2015 00:00
Orbit: 832 x 847 km, 71.0° (Epoch: 21 May)

Date Brightness Start Highest point End Pass type
(mag) Time Alt. Az. Time Alt. Az. Time Alt. Az.
22 May 3.0 21:46:05 16° SSE 21:49:34 30° ESE 21:54:28 10° NE visible
22 May 3.2 23:28:02 10° SW 23:33:25 44° WNW 23:38:51 10° NNE visible
23 May 3.1 21:29:17 10° SSE 21:33:57 28° ESE 21:38:46 10° NE visible
23 May 3.1 23:12:19 10° SW 23:17:46 46° WNW 23:23:14 10° NNE visible
24 May 5.1 01:02:27 10° NW 01:03:26 10° NW 01:04:10 10° NNW visible
24 May 3.2 21:13:47 10° SSE 21:18:21 26° ESE 21:23:03 10° NE visible
24 May 3.1 22:56:37 10° SW 23:02:07 49° WNW 23:07:38 10° NNE visible
25 May 5.1 00:46:11 10° NW 00:47:43 11° NW 00:49:00 10° NNW visible
25 May 3.2 20:58:19 10° SSE 21:02:45 25° ESE 21:07:20 10° NE visible
25 May 3.0 22:40:57 10° SW 22:46:27 52° WNW 22:52:01 10° NNE visible
26 May 5.1 00:30:05 10° NW 00:31:59 11° NW 00:33:40 10° NNW visible
26 May 2.9 22:25:16 10° SW 22:30:48 55° WNW 22:36:24 10° NNE visible
27 May 5.1 00:14:03 10° WNW 00:16:17 12° NW 00:18:16 10° NNW visible
27 May 2.8 22:09:35 10° SW 22:15:10 58° WNW 22:20:47 10° NNE visible
27 May 5.1 23:58:05 10° WNW 00:00:34 13° NW 00:02:51 10° NNW visible
28 May 2.8 21:53:55 10° SW 21:59:31 62° WNW 22:05:10 10° NNE visible
28 May 5.1 23:42:08 10° WNW 23:44:52 13° NW 23:47:22 10° NNW visible
29 May 2.7 21:38:16 10° SW 21:43:53 66° WNW 21:49:33 10° NNE visible
29 May 5.1 23:26:13 10° WNW 23:29:09 14° NW 23:31:53 10° N visible
30 May 2.6 21:22:36 10° SSW 21:28:14 70° WNW 21:33:56 10° NNE visible
30 May 5.2 23:10:19 10° WNW 23:13:27 14° NW 23:16:24 10° N visible
31 May 5.4 04:31:59 10° N 04:35:13 16° NE 04:38:38 10° ENE visible
31 May 2.5 21:06:56 10° SSW 21:12:36 74° WNW 21:18:19 10° NNE visible
31 May 5.2 22:54:26 10° WNW 22:57:45 15° NW 23:00:53 10° N visible
